Terminal Aerodrome Forecast
Issued by NWS Pueblo, CO

Home | Current Version | Previous Version | Text Only | Print | Product List | Glossary On
Versions: 1 2 3 4 5 6 7 8 9 10 11 12 13 14 15 16 17 18 19 20 21 22 23 24 25 26 27 28 29 30 31 32 33 34 35 36 37 38 39 40 41 42 43 44 45 46 47
000
FTUS45 KPUB 052008 AAB
TAFCOS
TAF AMD
KCOS 052008Z 0520/0618 20005KT P6SM FEW090 SCT180 BKN250
      TEMPO 0521/0523 VRB20G35KT -TSRA BKN080CB
     FM052300 34013KT P6SM VCTS SCT080CB BKN100
     FM060300 36014KT P6SM SCT080 BKN100
     FM060800 36015G25KT P6SM BKN070 BKN100
     FM061300 02020G30KT P6SM BKN020 BKN050=

USA.gov is the U.S. government's official web portal to all federal, state and local government web resources and services.